Location: Bermeries
(50.2863°N, 3.7551°E)
Time: 06:30:05
(UTC+00:00)

Cosmos 1408 - Pass Details

Date: 23 May 2024
Orbit: 362 x 376 km, 82.6° (Epoch: 19 June)

Event Time Altitude Azimuth Distance (km) Brightness Sun altitude
Rises 13:28:18 0° 342° (NNW) 2,232 5.8 53.6°
Reaches altitude 10° 13:30:23 10° 332° (NNW) 1,381 4.9 53.4°
Maximum altitude 13:33:06 33° 266° (W) 662 4.3 53.0°
Drops below altitude 10° 13:35:49 10° 201° (SSW) 1,382 5.6 52.7°
Enters shadow 14:07:50 -66° 171° (S) 12,095 9.2 48.7°
Exits shadow 14:43:07 -42° 7° (N) 9,030 8.5 43.7°
